TimeCST,TemperatureF,Dew PointF,Humidity,Sea Level PressureIn,VisibilityMPH,Wind Direction,Wind SpeedMPH,Gust SpeedMPH,PrecipitationIn,Events,Conditions,WindDirDegrees,DateUTC
12:15 AM,32.0,28.4,87,30.34,10.0,SSE,3.5,-,N/A,,Clear,160,2013-01-10 06:15:00
12:35 AM,32.0,26.6,80,30.33,10.0,South,5.8,-,N/A,,Clear,180,2013-01-10 06:35:00
12:55 AM,32.0,26.6,80,30.32,10.0,South,6.9,-,N/A,,Clear,170,2013-01-10 06:55:00
2:35 AM,32.0,24.8,75,30.32,10.0,SSE,3.5,-,N/A,,Clear,150,2013-01-10 08:35:00
2:55 AM,30.2,24.8,80,30.31,10.0,SSE,4.6,-,N/A,,Clear,150,2013-01-10 08:55:00
3:15 AM,32.0,24.8,75,30.30,10.0,South,4.6,-,N/A,,Clear,170,2013-01-10 09:15:00
3:35 AM,30.2,24.8,80,30.29,10.0,South,8.1,-,N/A,,Clear,170,2013-01-10 09:35:00
3:55 AM,32.0,24.8,75,30.29,10.0,South,10.4,-,N/A,,Clear,170,2013-01-10 09:55:00
4:15 AM,30.2,24.8,80,30.28,10.0,SE,6.9,-,N/A,,Clear,130,2013-01-10 10:15:00
4:35 AM,32.0,26.6,80,30.26,10.0,ESE,4.6,-,N/A,,Clear,120,2013-01-10 10:35:00
4:55 AM,32.0,24.8,75,30.26,10.0,South,11.5,-,N/A,,Clear,180,2013-01-10 10:55:00
5:15 AM,33.8,24.8,70,30.25,10.0,SSE,8.1,-,N/A,,Clear,160,2013-01-10 11:15:00
5:35 AM,32.0,24.8,75,30.24,10.0,SSE,8.1,-,N/A,,Clear,160,2013-01-10 11:35:00
5:55 AM,30.2,24.8,80,30.23,10.0,SE,5.8,-,N/A,,Clear,130,2013-01-10 11:55:00
6:35 AM,32.0,24.8,75,30.22,10.0,SE,10.4,-,N/A,,Clear,130,2013-01-10 12:35:00
6:55 AM,32.0,24.8,75,30.22,10.0,ESE,9.2,-,N/A,,Clear,120,2013-01-10 12:55:00
7:15 AM,30.2,24.8,80,30.21,10.0,SE,6.9,-,N/A,,Clear,130,2013-01-10 13:15:00
7:35 AM,32.0,24.8,75,30.20,10.0,SE,8.1,-,N/A,,Clear,130,2013-01-10 13:35:00
7:55 AM,32.0,24.8,75,30.19,10.0,SE,8.1,-,N/A,,Clear,130,2013-01-10 13:55:00
8:35 AM,30.2,26.6,86,30.18,10.0,ESE,9.2,-,N/A,,Clear,120,2013-01-10 14:35:00
8:55 AM,30.2,28.4,93,30.17,10.0,ESE,9.2,-,N/A,,Clear,120,2013-01-10 14:55:00
9:15 AM,32.0,26.6,80,30.16,10.0,SE,11.5,-,N/A,,Clear,130,2013-01-10 15:15:00
9:35 AM,33.8,28.4,81,30.15,10.0,ESE,8.1,-,N/A,,Partly Cloudy,120,2013-01-10 15:35:00
9:55 AM,33.8,28.4,81,30.13,10.0,SE,12.7,-,N/A,,Mostly Cloudy,130,2013-01-10 15:55:00
10:15 AM,33.8,28.4,81,30.12,10.0,SE,10.4,-,N/A,,Mostly Cloudy,130,2013-01-10 16:15:00
10:35 AM,33.8,28.4,81,30.11,10.0,SE,10.4,-,N/A,,Overcast,130,2013-01-10 16:35:00
10:55 AM,33.8,28.4,81,30.09,10.0,SE,12.7,-,N/A,,Overcast,130,2013-01-10 16:55:00
11:15 AM,33.8,30.2,87,30.06,10.0,ESE,12.7,-,N/A,,Overcast,120,2013-01-10 17:15:00
11:35 AM,33.8,28.4,81,30.05,10.0,ESE,15.0,-,N/A,,Overcast,120,2013-01-10 17:35:00
11:55 AM,33.8,28.4,81,30.01,10.0,ESE,13.8,-,N/A,,Overcast,120,2013-01-10 17:55:00
12:15 PM,35.6,30.2,81,29.98,10.0,ESE,13.8,-,N/A,,Overcast,110,2013-01-10 18:15:00
12:35 PM,35.6,30.2,81,29.97,10.0,ESE,11.5,-,N/A,,Overcast,120,2013-01-10 18:35:00
12:55 PM,35.6,30.2,81,29.96,10.0,ESE,12.7,-,N/A,,Overcast,120,2013-01-10 18:55:00
1:15 PM,35.6,30.2,81,29.94,10.0,ESE,10.4,-,N/A,,Overcast,110,2013-01-10 19:15:00
1:35 PM,33.8,30.2,87,29.91,10.0,East,11.5,-,N/A,,Overcast,100,2013-01-10 19:35:00
1:55 PM,35.6,30.2,81,29.92,10.0,ESE,10.4,-,N/A,,Overcast,120,2013-01-10 19:55:00
2:15 PM,33.8,30.2,87,29.91,9.0,SE,10.4,-,N/A,,Overcast,130,2013-01-10 20:15:00
2:35 PM,33.8,32.0,93,29.91,6.0,ESE,11.5,-,N/A,Rain,Light Rain,110,2013-01-10 20:35:00
2:55 PM,33.8,32.0,93,29.91,8.0,ESE,10.4,-,0.01,,Light Drizzle,120,2013-01-10 20:55:00
3:15 PM,33.8,32.0,93,29.89,5.0,ESE,9.2,-,N/A,,Overcast,110,2013-01-10 21:15:00
3:35 PM,33.8,32.0,93,29.89,3.0,SE,9.2,-,N/A,,Overcast,130,2013-01-10 21:35:00
3:55 PM,33.8,33.8,100,29.88,3.0,ESE,8.1,-,N/A,,Overcast,120,2013-01-10 21:55:00
4:15 PM,33.8,33.8,100,29.89,9.0,SE,6.9,-,N/A,,Overcast,140,2013-01-10 22:15:00
4:35 PM,33.8,33.8,100,29.87,3.0,SE,9.2,-,N/A,Rain,Light Rain,130,2013-01-10 22:35:00
4:55 PM,33.8,33.8,100,29.84,6.0,ESE,8.1,-,0.02,,Light Drizzle,120,2013-01-10 22:55:00
5:15 PM,33.8,33.8,100,29.83,1.5,SE,10.4,-,N/A,,Overcast,130,2013-01-10 23:15:00
5:35 PM,33.8,33.8,100,29.84,0.2,SE,9.2,-,N/A,Fog,Fog,140,2013-01-10 23:35:00
5:55 PM,33.8,33.8,100,29.84,0.2,SSE,9.2,-,N/A,Fog,Fog,150,2013-01-10 23:55:00
6:15 PM,33.8,33.8,100,29.82,0.2,SE,9.2,-,N/A,Fog,Fog,130,2013-01-11 00:15:00
6:35 PM,33.8,33.8,100,29.81,0.2,SE,9.2,-,N/A,Fog,Fog,130,2013-01-11 00:35:00
6:55 PM,33.8,33.8,100,29.80,0.2,SE,10.4,-,N/A,Fog,Fog,140,2013-01-11 00:55:00
7:15 PM,33.8,33.8,100,29.78,0.2,SE,12.7,-,N/A,Fog,Fog,140,2013-01-11 01:15:00
7:35 PM,33.8,33.8,100,29.78,0.2,SE,6.9,-,N/A,Fog,Fog,140,2013-01-11 01:35:00
7:55 PM,33.8,33.8,100,29.76,0.2,SE,8.1,-,N/A,Fog,Fog,130,2013-01-11 01:55:00
8:15 PM,33.8,33.8,100,29.74,0.2,ESE,6.9,-,N/A,Fog,Fog,120,2013-01-11 02:15:00
8:35 PM,33.8,33.8,100,29.76,0.2,SSE,8.1,-,N/A,Fog,Fog,150,2013-01-11 02:35:00
8:55 PM,33.8,33.8,100,29.75,0.2,South,10.4,-,N/A,Fog,Fog,170,2013-01-11 02:55:00
9:15 PM,33.8,33.8,100,29.74,0.2,South,4.6,-,N/A,Rain,Light Rain,170,2013-01-11 03:15:00
9:35 PM,33.8,33.8,100,29.76,0.2,Calm,Calm,-,N/A,Fog,Fog,0,2013-01-11 03:35:00
9:55 PM,33.8,33.8,100,29.76,0.2,Calm,Calm,-,N/A,Fog,Fog,0,2013-01-11 03:55:00
10:15 PM,33.8,33.8,100,29.74,0.2,Calm,Calm,-,N/A,,Light Drizzle,0,2013-01-11 04:15:00
10:35 PM,33.8,33.8,100,29.73,0.2,East,3.5,-,N/A,Fog,Fog,80,2013-01-11 04:35:00
10:55 PM,33.8,33.8,100,29.73,0.2,Calm,Calm,-,N/A,Fog,Fog,0,2013-01-11 04:55:00
11:15 PM,33.8,33.8,100,29.71,0.2,ESE,4.6,-,N/A,Fog,Fog,120,2013-01-11 05:15:00
11:55 PM,33.8,33.8,100,29.69,0.2,SE,4.6,-,N/A,Fog,Fog,140,2013-01-11 05:55:00